Regional Weather Roundup
Issued by NWS Little Rock, AR

Home | Current Version | Previous Version | Graphics & Text | Print | Product List | Glossary On
Versions: 1 2 3 4 5 6 7 8 9 10 11 12 13 14 15 16 17 18 19 20 21 22 23 24 25 26 27 28 29 30 31 32 33 34 35 36 37 38 39 40 41 42 43 44 45 46
000
ASUS44 KLZK 041105
RWRLZK

WEATHER ROUNDUP FOR ARKANSAS
NATIONAL WEATHER SERVICE LITTLE ROCK AR
600 AM CDT SAT JUL 04 2015

NOTE: "FAIR" INDICATES FEW OR NO CLOUDS BELOW 12,000 FEET WITH NO
SIGNIFICANT WEATHER AND/OR OBSTRUCTIONS TO VISIBILITY.

ARZ001-003-010-029-041200-
NORTHWEST ARKANSAS

CITY           SKY/WX    TMP DP  RH WIND       PRES   REMARKS
FAYETTEVILLE   FOG       64  64 100 CALM      29.98R VSB 1/4
FORT SMITH     FOG       70  68  93 CALM      29.94R VSB 1/4
HARRISON       FOG       67  67 100 CALM      29.99R VSB<1/4
BENTONVILLE    CLOUDY    68  64  88 CALM      29.99R VSB 1/2
ROGERS         MOCLDY    68  66  94 CALM      29.99R
SILOAM SPGS    CLOUDY    66  63  88 CALM        N/A
HIGHFILL       FOG       69  69 100 CALM      29.98R VSB 3/4
SPRINGDALE     FOG       66  66 100 CALM      30.00  VSB 1/4
$$

ARZ004-005-016-041200-
NORTH CENTRAL ARKANSAS

CITY           SKY/WX    TMP DP  RH WIND       PRES   REMARKS
BATESVILLE     MOCLDY    66  66 100 NW3       29.94S
FLIPPIN        MOCLDY    66  64  94 CALM      29.95R VSB 1/2
MTN HOME       CLOUDY    68  66  93 CALM      29.96R
$$

ARZ040-041-041200-
WEST CENTRAL ARKANSAS

CITY           SKY/WX    TMP DP  RH WIND       PRES   REMARKS
MENA           CLOUDY    72  70  94 CALM      29.98R
MOUNT IDA      LGT RAIN  71  70  96 SE3       29.95R
$$

ARZ009-017-025-026-028-041200-
NORTHEAST ARKANSAS

CITY           SKY/WX    TMP DP  RH WIND       PRES   REMARKS
JONESBORO      FOG       70  70 100 CALM      29.94R VSB 1/2
NEWPORT        PTCLDY    70  70 100 CALM      29.95R
WALNUT RIDGE   PTCLDY    72  70  94 E3        29.94R
BLYTHEVILLE    CLOUDY    72  72 100 S5        29.95R
$$

ARZ022-023-033-042-044-041200-
CENTRAL ARKANSAS

CITY           SKY/WX    TMP DP  RH WIND       PRES   REMARKS
LITTLE ROCK    CLOUDY    71  67  87 CALM      29.95R
N LITTLE ROCK    N/A     69  69 100 S5        29.95R
JACKSONVILLE   CLOUDY    70  69  99 CALM      29.94R
SEARCY         CLOUDY    69  68  96 S3        29.96R
HOT SPRINGS    RAIN      69  68  96 CALM      29.99R FOG
RUSSELLVILLE   MOCLDY    69  68  96 CALM      29.95R
CLINTON        MOCLDY    66  66 100 CALM      29.97R FOG
$$

ARZ036-041200-
EAST ARKANSAS

CITY           SKY/WX    TMP DP  RH WIND       PRES   REMARKS
WEST MEMPHIS   CLOUDY    72  72 100 VRB3      29.94R
$$

ARZ050-053-066-070-073-041200-
SOUTHWEST ARKANSAS

CITY           SKY/WX    TMP DP  RH WIND       PRES   REMARKS
ARKADELPHIA    TSTM      71  71 100 VRB5      30.00R FOG
CAMDEN         HVY RAIN  68  66  94 MISG      29.99S
TEXARKANA      CLOUDY    78  73  84 SW13      29.94R
EL DORADO      CLOUDY    72  68  87 NE7       29.99R
DE QUEEN       TSTM      71  70  96 VRB7      29.94S VSB 3/4
$$

ARZ056-057-069-041200-
SOUTHEAST ARKANSAS

CITY           SKY/WX    TMP DP  RH WIND       PRES   REMARKS
PINE BLUFF     LGT RAIN  72  69  90 SW6       29.97R
STUTTGART      CLOUDY    72  66  83 CALM      29.94R
MONTICELLO     TSTM      71  71 100 W8        29.98R FOG

$$





USA.gov is the U.S. government's official web portal to all federal, state and local government web resources and services.